Find USA 60

NORAD ID: 20682 Int'l Des: 1990-050 Owner: NRO/NRL Country: US operational
LEO

Live Position

Loading 3D Globe...

About USA 60

Description loading...

Upcoming Passes

Passes for default location (London). Set your location on the main map for personalized predictions.

Altitude History

Loading altitude history...

Two-Line Element Set

1 20682U 90050B 26106.14699333 .00005688 00000-0 37691-3 0 9991
2 20682 63.2981 15.6757 0878248 81.7436 288.2121 13.65084818 95389
Epoch: Apr 16, 2026 • Age: 14 hours

Current Status

Altitude 623.4 km
Velocity 7.75 km/s
Sub-Earth Point 22.35°N, 84.53°W
Launch Date Jun 8, 1990
Age 35.8 years
Type military

Technical Details

Classification Payload
Mass 400.00 kg
Dry Mass 400.00 kg
Total Mass 400.00 kg
Length 1.00 m
Diameter 1.00 m
Span 10.00 m
Shape Box + Ant
Manufacturer NRL
Bus Type NOSS B SSU
Phase Status In Orbit
Owner/State NRO/NRL/US

Most Searched